Regional Weather Roundup
Issued by NWS

Home | Current Version | Previous Version | Graphics & Text | Print | Product List | Glossary On
Versions: 1 2 3 4 5 6 7 8 9 10 11 12 13 14 15 16 17 18 19 20 21 22 23 24 25 26 27 28 29 30 31 32 33 34 35 36 37 38 39 40 41 42 43 44 45 46 47 48 49 50
109
ASUS43 KDMX 290006
RWRIA

WEATHER ROUNDUP FOR IOWA
NATIONAL WEATHER SERVICE DES MOINES IA
700 PM CDT WED JUN 28 2017

NOTE: "FAIR" INDICATES FEW OR NO CLOUDS BELOW 12,000 FEET WITH NO
SIGNIFICANT WEATHER AND/OR OBSTRUCTIONS TO VISIBILITY.

* - THESE STATIONS ARE NOT NWS STATIONS...THUS NOT UNDER NWS
QUALITY CONTROL.  THEY ALSO DO NOT REPORT WEATHER SUCH
AS PRECIPITATION OR FOG.

IAZ001>003-012>014-020>022-031>034-043>046-290100-
   NORTHWEST IOWA

CITY           SKY/WX    TMP DP  RH WIND       PRES   REMARKS
CARROLL *      PTSUNNY   86  70  58 W9        29.63S HX  90
CHEROKEE *       N/A     84  62  46 W10       29.62R HX  84
DENISON *        N/A     86  66  51 NW9G16    29.65S HX  88
LE MARS *        N/A     84  63  48 NW9G18    29.63S HX  85
ORANGE CITY *    N/A     82  64  54 W10       29.63S HX  84
SHELDON *        N/A     84  63  48 W16       29.60F HX  85
SIOUX CITY       N/A     86  66  51 NW10      29.62S HX  88
6HR MIN TEMP:  83; 6HR MAX TEMP:  90;

SPENCER          N/A     83  64  52 W15G23    29.61S HX  84
6HR MIN TEMP:  80; 6HR MAX TEMP:  86;

STORM LAKE *     N/A     82  64  54 W12       29.64R HX  84
$$

IAZ055>058-069>071-079>083-090>094-290100-
   SOUTHWEST IOWA

CITY           SKY/WX    TMP DP  RH WIND       PRES   REMARKS
ATLANTIC *       N/A     81  70  69 S9        29.65R HX  84
AUDUBON *        N/A     84  72  65 W5        29.66R HX  89
CLARINDA *     PTSUNNY   73  66  78 E8G15     29.68R
COUNCIL BLFS *   N/A     88  68  51 NW9G15    29.65S HX  91
CRESTON *      PTSUNNY   68  64  88 SW13G24   29.71S FOG
HARLAN  *        N/A     84  70  61 SW5       29.68S HX  88
LAMONI         TSTM      69  65  86 SW14G23   29.72S FOG
6HR MIN TEMP:  68; 6HR MAX TEMP:  86; 6HR PCP:  0.68;

RED OAK *        N/A     82  73  74 S8        29.65R HX  88
SHENANDOAH *   PTSUNNY   79  73  83 NE8       29.64S HX  82
$$

IAZ047>049-059>061-072>074-084-290100-
   CENTRAL IOWA

CITY           SKY/WX    TMP DP  RH WIND       PRES   REMARKS
AMES             N/A     78  70  76 S15G28    29.63R HX  80
6HR MIN TEMP:  77; 6HR MAX TEMP:  84;

ANKENY *         N/A     73  68  83 S6        29.67F
BOONE *          N/A     79  70  73 S14G26    29.63S HX  81
CHARITON *     PTSUNNY   81  70  69 S16G28    29.68F HX  84
DES MOINES     CLOUDY    73  67  81 S10       29.66S
6HR MIN TEMP:  70; 6HR MAX TEMP:  86; 6HR PCP:  0.61;

GRINNELL*      HVY RAIN  73  65  76 SW21G38   29.70R
KNOXVILLE *    LGT RAIN  75  72  88 SW8       29.69R
MARSHALLTOWN   CLOUDY    75  72  90 SW6       29.67R
6HR MIN TEMP:  74; 6HR MAX TEMP:  85; 6HR PCP:  0.32;

NEWTON *       PTSUNNY   70  66  88 S15       29.68F
PELLA *        RAIN      73  70  93 S9        29.70F
PERRY *          N/A     78  72  81 S16G23    29.64S HX  81
$$

IAZ004>006-015-016-023>025-035-036-290100-
   NORTH CENTRAL IOWA

CITY           SKY/WX    TMP DP  RH WIND       PRES   REMARKS
ALGONA *         N/A     84  64  51 W12G17    29.62R HX  86
CLARION *        N/A     81  73  78 SW9       29.63R HX  85
ESTHERVILLE      N/A     81  65  58 W14G23    29.58F HX  83
6HR MIN TEMP:  77; 6HR MAX TEMP:  83;

FORT DODGE *     N/A     82  70  65 W9        29.63R HX  86
MASON CITY       N/A     80  69  69 SW9       29.63R HX  83
6HR MIN TEMP:  69; 6HR MAX TEMP:  81; 6HR PCP:  0.31;

FOREST CITY *    N/A     84  54  34 W8G18     29.61R HX  83
WEBSTER CITY *   N/A     82  73  74 SW12G17   29.60R HX  88
IOWA FALLS *   HVY RAIN  65  64  95 N7G58     29.67F VSB 1/4
$$

IAZ007>011-017>019-026>030-037>042-050>054-066-290100-
   NORTHEAST IOWA

CITY           SKY/WX    TMP DP  RH WIND       PRES   REMARKS
CEDAR RAPIDS   LGT RAIN  80  72  76 S17G30    29.65S HX  84
6HR MIN TEMP:  76; 6HR MAX TEMP:  82; 6HR PCP: TRACE;

CHARLES CITY *   N/A     75  73  94 SW12      29.63R
CLINTON *        N/A     79  70  74 S21G29    29.69F HX  82
DECORAH *        N/A     66  64  94 VRB5      29.62S
DUBUQUE        CLOUDY    67  62  84 NE9       29.68R
6HR MIN TEMP:  68; 6HR MAX TEMP:  80; 6HR PCP:  0.13;

MONTICELLO *   RAIN      77  72  83 S14G24    29.65R
OELWEIN *        N/A     68  66  94 VRB3      29.64R
WATERLOO       LGT RAIN  69  65  86 W25G31    29.64R
6HR MIN TEMP:  69; 6HR MAX TEMP:  82; 6HR PCP:  0.01;

$$

IAZ064-065-067-068-078-290100-
   EAST CENTRAL IOWA

CITY           SKY/WX    TMP DP  RH WIND       PRES   REMARKS
IOWA CITY      PTSUNNY   83  70  64 S20       29.68F HX  87
6HR MIN TEMP:  79; 6HR MAX TEMP:  86;

MT. PLEASANT *   N/A     82  67  60 S15G23    29.75R HX  84
MUSCATINE *      N/A     82  70  65 S17       29.70S HX  86
QUAD CITIES    PTSUNNY   81  68  64 S13       29.71F HX  84
6HR MIN TEMP:  75; 6HR MAX TEMP:  83; 6HR PCP:  0.01;

$$

IAZ062-063-075>077-085>089-095>099-290100-
   SOUTHEAST IOWA

CITY           SKY/WX    TMP DP  RH WIND       PRES   REMARKS
BURLINGTON       N/A     83  69  62 S13G21    29.76R HX  86
6HR MIN TEMP:  77; 6HR MAX TEMP:  85; 6HR PCP:  0.03;

FAIRFIELD *    PTSUNNY   82  66  57 S17G29    29.73R HX  85
FORT MADISON * PTSUNNY   82  70  65 SW12      29.78R HX  86
KEOKUK *         N/A     82  68  61 SW12G20   29.77R HX  85
OSKALOOSA *    RAIN      77  71  81 S15G23    29.72R
CENTERVILLE *  LGT RAIN  77  72  83 S10       29.76F
OTTUMWA        LGT RAIN  79  72  79 S14G23    29.71R HX  82
6HR MIN TEMP:  80; 6HR MAX TEMP:  87; 6HR PCP:  0.01;

WASHINGTON *     N/A     82  70  65 S17G30    29.72R HX  86
$$

ABBREVIATIONS USED IN REMARKS
   TC - TEMPERATURES IN CELSIUS
  WCI - WIND CHILL INDEX
   HX - HEAT INDEX
  VSB - VISIBILITY
$$





USA.gov is the U.S. government's official web portal to all federal, state and local government web resources and services.